Location: Kumla
(59.1265°N, 15.1401°E)
Time: 08:15:25
(UTC+01:00)

A-11 Canister half - Pass Details

Date: 05 December 2023
Orbit: 1526 x 1682 km, 47.3° (Epoch: 04 March)

Event Time Altitude Azimuth Distance (km) Brightness Sun altitude
Rises 21:09:38 0° 245° (WSW) 4,932 12.0 -43.6°
Reaches altitude 10° 21:13:01 10° 239° (WSW) 3,941 11.3 -44.0°
Enters shadow 21:16:28 23° 227° (SW) 3,031 10.5 -44.3°
